BAW606 OMDB-WSSS

Flight info

Callsign BAW606
Flight time N/A
Altitude 35000
Route OMDB/30R N0500F350 IVUR1F IVURO M677 LALDO B505 NADSO A777 VAXIM P307 PARAR N571 DORAM/N0495F370 N571 GUNIP M630 NIREN Y511 TOPOR A464 ARAMA DCT TEBUN TEBU1B WSSS/20R
Aircraft A349/H-V/N

Departure

Time N/A
Airport Dubai International Airport (OMDB)

Arrival

Time 2026-05-08 03:36
Airport Singapore Changi Airport (WSSS)
Time Latitude Longitude Altitude Speed Heading
2026-05-08 00:23 11.57507 85.78552 36832 ft 479 kts 117°
2026-05-08 00:24 11.54329 85.85016 36829 ft 479 kts 117°
2026-05-08 00:24 11.51904 85.89949 36829 ft 478 kts 117°
2026-05-08 00:25 11.49310 85.95227 36827 ft 478 kts 117°
2026-05-08 00:25 11.46344 86.01244 36831 ft 478 kts 117°
2026-05-08 00:26 11.43338 86.07296 36827 ft 477 kts 117°
2026-05-08 00:26 11.40353 86.13318 36825 ft 476 kts 117°
2026-05-08 00:27 11.37379 86.19326 36829 ft 477 kts 117°
2026-05-08 00:27 11.34398 86.25351 36827 ft 476 kts 117°
2026-05-08 00:28 11.31422 86.31368 36828 ft 476 kts 117°
2026-05-08 00:28 11.28421 86.37431 36829 ft 476 kts 117°
2026-05-08 00:29 11.25456 86.43417 36827 ft 476 kts 117°
2026-05-08 00:29 11.22467 86.49447 36827 ft 475 kts 117°
2026-05-08 00:30 11.19503 86.55423 36827 ft 475 kts 117°
2026-05-08 00:30 11.16520 86.61436 36829 ft 475 kts 117°
2026-05-08 00:31 11.13560 86.67397 36827 ft 475 kts 117°
2026-05-08 00:31 11.10583 86.73389 36825 ft 475 kts 117°
2026-05-08 00:32 11.07601 86.79389 36830 ft 475 kts 117°
2026-05-08 00:32 11.04625 86.85371 36839 ft 474 kts 117°
2026-05-08 00:33 11.01649 86.91348 36842 ft 474 kts 117°
2026-05-08 00:33 10.98663 86.97346 36835 ft 474 kts 117°
2026-05-08 00:34 10.95691 87.03311 36827 ft 474 kts 117°
2026-05-08 00:34 10.92712 87.09287 36828 ft 473 kts 117°
2026-05-08 00:35 10.89748 87.15228 36831 ft 473 kts 117°
2026-05-08 00:35 10.86760 87.21216 36827 ft 473 kts 117°
2026-05-08 00:36 10.83797 87.27148 36827 ft 473 kts 117°
2026-05-08 00:36 10.80822 87.33099 36833 ft 473 kts 117°
2026-05-08 00:37 10.77843 87.39055 36836 ft 473 kts 116°
2026-05-08 00:38 10.73382 87.47977 36846 ft 472 kts 117°
2026-05-08 00:38 10.70394 87.53944 36842 ft 472 kts 117°
2026-05-08 00:39 10.67430 87.59861 36843 ft 472 kts 117°
2026-05-08 00:39 10.64457 87.65794 36840 ft 472 kts 117°
2026-05-08 00:40 10.61470 87.71750 36834 ft 473 kts 116°
2026-05-08 00:40 10.58488 87.77698 36839 ft 473 kts 116°
2026-05-08 00:41 10.55512 87.83634 36832 ft 473 kts 117°
2026-05-08 00:41 10.52545 87.89552 36829 ft 472 kts 117°
2026-05-08 00:42 10.49558 87.95511 36828 ft 472 kts 117°
2026-05-08 00:42 10.46587 88.01414 36825 ft 472 kts 117°
2026-05-08 00:43 10.43592 88.07330 36823 ft 472 kts 116°
2026-05-08 00:43 10.40590 88.13276 36827 ft 473 kts 116°
2026-05-08 00:44 10.37595 88.19220 36824 ft 473 kts 116°
2026-05-08 00:44 10.34611 88.25140 36825 ft 472 kts 116°
2026-05-08 00:45 10.31616 88.31084 36826 ft 473 kts 116°
2026-05-08 00:45 10.28623 88.37024 36825 ft 473 kts 116°
2026-05-08 00:46 10.25638 88.42947 36827 ft 473 kts 116°
2026-05-08 00:46 10.22643 88.48890 36827 ft 472 kts 116°
2026-05-08 00:47 10.19724 88.54822 36826 ft 472 kts 114°
2026-05-08 00:47 10.16934 88.60876 36828 ft 472 kts 114°
2026-05-08 00:48 10.14179 88.66887 36835 ft 472 kts 114°
2026-05-08 00:48 10.11416 88.72917 36841 ft 472 kts 114°
2026-05-08 00:49 10.08667 88.78917 36843 ft 471 kts 114°
2026-05-08 00:49 10.05915 88.84923 36845 ft 469 kts 114°
2026-05-08 00:50 10.03166 88.90925 36847 ft 469 kts 114°
2026-05-08 00:50 10.00421 88.96912 36847 ft 469 kts 114°
2026-05-08 00:51 9.97667 89.02895 36847 ft 469 kts 114°
2026-05-08 00:51 9.94896 89.08883 36848 ft 469 kts 114°
2026-05-08 00:52 9.92139 89.14856 36848 ft 469 kts 114°
2026-05-08 00:52 9.89381 89.20840 36848 ft 469 kts 114°
2026-05-08 00:53 9.86613 89.26849 36848 ft 470 kts 114°
2026-05-08 00:53 9.83850 89.32843 36848 ft 471 kts 114°
2026-05-08 00:54 9.81086 89.38834 36848 ft 471 kts 114°
2026-05-08 00:54 9.78319 89.44832 36848 ft 471 kts 114°
2026-05-08 00:55 9.75529 89.50875 36847 ft 472 kts 114°
2026-05-08 00:55 9.72751 89.56892 36846 ft 473 kts 114°
2026-05-08 00:56 9.69955 89.62945 36845 ft 473 kts 114°
2026-05-08 00:56 9.67172 89.68966 36846 ft 473 kts 114°
2026-05-08 00:57 9.64381 89.75000 36843 ft 473 kts 114°
2026-05-08 00:57 9.61588 89.81039 36838 ft 474 kts 114°
2026-05-08 00:58 9.58810 89.87046 36833 ft 474 kts 114°
2026-05-08 00:58 9.56014 89.93098 36828 ft 474 kts 114°
2026-05-08 00:59 9.53224 89.99123 36827 ft 475 kts 114°
2026-05-08 00:59 9.50398 90.05183 36827 ft 475 kts 114°
2026-05-08 01:00 9.47557 90.11271 36828 ft 475 kts 114°
2026-05-08 01:00 9.44754 90.17292 36828 ft 475 kts 114°
2026-05-08 01:01 9.41946 90.23329 36829 ft 475 kts 114°
2026-05-08 01:01 9.39130 90.29384 36830 ft 475 kts 114°
2026-05-08 01:02 9.36323 90.35416 36835 ft 475 kts 114°
2026-05-08 01:02 9.33502 90.41477 36842 ft 475 kts 114°
2026-05-08 01:03 9.30690 90.47515 36845 ft 475 kts 114°
2026-05-08 01:03 9.27873 90.53560 36847 ft 475 kts 115°
2026-05-08 01:04 9.25061 90.59591 36847 ft 476 kts 115°
2026-05-08 01:04 9.22226 90.65667 36849 ft 476 kts 115°
2026-05-08 01:05 9.19413 90.71696 36849 ft 476 kts 115°
2026-05-08 01:05 9.16601 90.77719 36848 ft 475 kts 115°
2026-05-08 01:06 9.13765 90.83788 36848 ft 476 kts 115°
2026-05-08 01:06 9.10935 90.89844 36848 ft 476 kts 115°
2026-05-08 01:07 9.08110 90.95885 36847 ft 476 kts 115°
2026-05-08 01:07 9.05272 91.01952 36847 ft 476 kts 115°
2026-05-08 01:08 9.02446 91.07986 36845 ft 476 kts 115°
2026-05-08 01:08 8.99632 91.13993 36846 ft 476 kts 115°
2026-05-08 01:09 8.96805 91.20029 36846 ft 476 kts 115°
2026-05-08 01:09 8.93957 91.26103 36846 ft 477 kts 115°
2026-05-08 01:10 8.91127 91.32137 36847 ft 477 kts 115°
2026-05-08 01:10 8.88278 91.38209 36848 ft 477 kts 115°
2026-05-08 01:11 8.85448 91.44238 36849 ft 477 kts 115°
2026-05-08 01:11 8.82601 91.50301 36848 ft 477 kts 115°
2026-05-08 01:12 8.79756 91.56355 36848 ft 478 kts 115°
2026-05-08 01:12 8.76841 91.62556 36849 ft 478 kts 115°
2026-05-08 01:13 8.74001 91.68597 36849 ft 478 kts 115°
2026-05-08 01:13 8.71138 91.74685 36848 ft 478 kts 115°
2026-05-08 01:14 8.68302 91.80714 36846 ft 479 kts 115°
2026-05-08 01:14 8.65451 91.86777 36845 ft 479 kts 115°
2026-05-08 01:15 8.62599 91.92845 36847 ft 478 kts 115°
2026-05-08 01:15 8.59743 91.98910 36848 ft 478 kts 115°
2026-05-08 01:16 8.56967 92.05012 36848 ft 478 kts 114°
2026-05-08 01:16 8.54270 92.11114 36850 ft 478 kts 114°
2026-05-08 01:17 8.51548 92.17275 36849 ft 479 kts 114°
2026-05-08 01:17 8.48840 92.23390 36849 ft 479 kts 114°
2026-05-08 01:18 8.46119 92.29528 36849 ft 478 kts 114°
2026-05-08 01:18 8.43407 92.35640 36849 ft 478 kts 114°
2026-05-08 01:19 8.40685 92.41771 36849 ft 478 kts 114°
2026-05-08 01:19 8.37973 92.47877 36849 ft 478 kts 114°
2026-05-08 01:20 8.35265 92.53974 36849 ft 479 kts 114°
2026-05-08 01:20 8.32537 92.60111 36849 ft 478 kts 114°
2026-05-08 01:21 8.29824 92.66210 36849 ft 478 kts 114°
2026-05-08 01:21 8.27095 92.72344 36849 ft 478 kts 114°
2026-05-08 01:22 8.24388 92.78424 36848 ft 478 kts 114°
2026-05-08 01:22 8.21662 92.84547 36848 ft 478 kts 114°
2026-05-08 01:23 8.18931 92.90675 36847 ft 478 kts 114°
2026-05-08 01:23 8.16213 92.96774 36848 ft 479 kts 114°
2026-05-08 01:24 8.13469 93.02927 36846 ft 478 kts 114°
2026-05-08 01:24 8.10751 93.09021 36848 ft 477 kts 114°
2026-05-08 01:25 8.08026 93.15129 36848 ft 477 kts 114°
2026-05-08 01:25 8.05313 93.21208 36847 ft 477 kts 114°
2026-05-08 01:26 8.02589 93.27306 36850 ft 477 kts 114°
2026-05-08 01:26 7.99864 93.33411 36854 ft 477 kts 114°
2026-05-08 01:27 7.97159 93.39472 36861 ft 477 kts 114°
2026-05-08 01:27 7.94432 93.45588 36867 ft 477 kts 114°
2026-05-08 01:28 7.91712 93.51667 36868 ft 477 kts 114°
2026-05-08 01:28 7.89103 93.57506 36868 ft 477 kts 114°
2026-05-08 01:29 7.86393 93.63593 36868 ft 477 kts 114°
2026-05-08 01:29 7.83678 93.69701 36868 ft 477 kts 114°
2026-05-08 01:30 7.80974 93.75782 36868 ft 477 kts 114°
2026-05-08 01:30 7.78277 93.81847 36868 ft 476 kts 114°
2026-05-08 01:31 7.75575 93.87920 36868 ft 477 kts 114°
2026-05-08 01:31 7.72862 93.94016 36868 ft 477 kts 114°
2026-05-08 01:32 7.70144 94.00123 36868 ft 477 kts 114°
2026-05-08 01:32 7.67435 94.06206 36868 ft 477 kts 114°
2026-05-08 01:33 7.64727 94.12286 36867 ft 477 kts 114°
2026-05-08 01:33 7.62013 94.18379 36866 ft 478 kts 114°
2026-05-08 01:34 7.59291 94.24488 36862 ft 478 kts 114°
2026-05-08 01:34 7.56572 94.30594 36860 ft 478 kts 114°
2026-05-08 01:35 7.53863 94.36681 36855 ft 478 kts 114°
2026-05-08 01:35 7.51133 94.42770 36852 ft 478 kts 115°
2026-05-08 01:36 7.48211 94.48777 36850 ft 478 kts 116°
2026-05-08 01:36 7.45263 94.54771 36848 ft 479 kts 115°
2026-05-08 01:37 7.42318 94.60801 36848 ft 479 kts 115°
2026-05-08 01:37 7.39405 94.66786 36849 ft 479 kts 115°
2026-05-08 01:38 7.36473 94.72814 36848 ft 479 kts 115°
2026-05-08 01:38 7.33539 94.78847 36849 ft 479 kts 115°
2026-05-08 01:39 7.30620 94.84849 36857 ft 479 kts 115°
2026-05-08 01:39 7.27669 94.90916 36866 ft 479 kts 115°
2026-05-08 01:40 7.24747 94.96918 36868 ft 480 kts 115°
2026-05-08 01:40 7.21796 95.02976 36868 ft 480 kts 115°
2026-05-08 01:41 7.18865 95.08993 36868 ft 479 kts 115°
2026-05-08 01:41 7.15938 95.15002 36868 ft 479 kts 115°
2026-05-08 01:42 7.13003 95.21024 36868 ft 479 kts 115°
2026-05-08 01:42 7.10078 95.27022 36868 ft 479 kts 115°
2026-05-08 01:43 7.07149 95.33025 36868 ft 479 kts 116°
2026-05-08 01:43 7.04207 95.39054 36868 ft 478 kts 115°
2026-05-08 01:44 7.01281 95.45046 36868 ft 478 kts 115°
2026-05-08 01:44 6.98312 95.51125 36868 ft 478 kts 115°
2026-05-08 01:45 6.95366 95.57157 36868 ft 478 kts 116°
2026-05-08 01:45 6.92413 95.63201 36869 ft 479 kts 116°
2026-05-08 01:46 6.89474 95.69213 36870 ft 478 kts 116°
2026-05-08 01:46 6.86559 95.75178 36870 ft 478 kts 116°
2026-05-08 01:47 6.83611 95.81211 36870 ft 478 kts 116°
2026-05-08 01:47 6.80692 95.87185 36871 ft 478 kts 116°
2026-05-08 01:48 6.76300 95.96176 36870 ft 478 kts 116°
2026-05-08 01:48 6.73348 96.02179 36869 ft 478 kts 116°
2026-05-08 01:49 6.70413 96.08140 36868 ft 478 kts 116°
2026-05-08 01:49 6.67462 96.14153 36867 ft 479 kts 115°
2026-05-08 01:50 6.64523 96.20150 36864 ft 480 kts 115°
2026-05-08 01:50 6.61577 96.26166 36862 ft 480 kts 115°
2026-05-08 01:51 6.58629 96.32188 36863 ft 481 kts 115°
2026-05-08 01:51 6.55683 96.38206 36861 ft 481 kts 115°
2026-05-08 01:52 6.52727 96.44239 36863 ft 481 kts 115°
2026-05-08 01:52 6.50088 96.50423 36860 ft 482 kts 109°
2026-05-08 01:53 6.48044 96.56797 36857 ft 481 kts 106°
2026-05-08 01:53 6.46160 96.63243 36854 ft 482 kts 105°
2026-05-08 01:54 6.44280 96.69685 36856 ft 482 kts 105°
2026-05-08 01:54 6.42375 96.76189 36861 ft 482 kts 106°
2026-05-08 01:55 6.40465 96.82703 36869 ft 483 kts 105°
2026-05-08 01:55 6.38567 96.89175 36869 ft 484 kts 106°
2026-05-08 01:56 6.36670 96.95637 36869 ft 484 kts 106°
2026-05-08 01:56 6.34772 97.02103 36868 ft 484 kts 106°
2026-05-08 01:57 6.32862 97.08604 36868 ft 484 kts 105°
2026-05-08 01:57 6.30971 97.15037 36869 ft 483 kts 105°
2026-05-08 01:58 6.29071 97.21508 36868 ft 484 kts 105°
2026-05-08 01:58 6.27165 97.27992 36868 ft 484 kts 105°
2026-05-08 01:59 6.25268 97.34454 36869 ft 483 kts 105°
2026-05-08 01:59 6.23372 97.40914 36868 ft 483 kts 105°
2026-05-08 02:00 6.21471 97.47371 36868 ft 483 kts 106°
2026-05-08 02:00 6.19115 97.53700 36869 ft 484 kts 113°
2026-05-08 02:01 6.16026 97.59678 36869 ft 485 kts 120°
2026-05-08 02:01 6.12210 97.65283 36869 ft 486 kts 127°
2026-05-08 02:02 6.07859 97.70461 36869 ft 487 kts 130°
2026-05-08 02:02 6.03405 97.75606 36868 ft 487 kts 130°
2026-05-08 02:03 5.98968 97.80737 36869 ft 487 kts 129°
2026-05-08 02:03 5.94530 97.85877 36869 ft 487 kts 129°
2026-05-08 02:04 5.90115 97.90990 36869 ft 486 kts 129°
2026-05-08 02:04 5.85668 97.96144 36869 ft 486 kts 129°
2026-05-08 02:05 5.81260 98.01250 36869 ft 486 kts 130°
2026-05-08 02:05 5.76828 98.06381 36868 ft 486 kts 130°
2026-05-08 02:06 5.72390 98.11516 36865 ft 487 kts 130°
2026-05-08 02:06 5.67952 98.16653 36865 ft 487 kts 130°
2026-05-08 02:07 5.63514 98.21787 36864 ft 487 kts 130°
2026-05-08 02:07 5.59072 98.26924 36863 ft 487 kts 130°
2026-05-08 02:08 5.54646 98.32043 36861 ft 487 kts 130°
2026-05-08 02:08 5.50194 98.37189 36865 ft 488 kts 130°
2026-05-08 02:09 5.45772 98.42300 36865 ft 488 kts 130°
2026-05-08 02:09 5.41325 98.47440 36869 ft 488 kts 130°
2026-05-08 02:10 5.36874 98.52582 36869 ft 489 kts 130°
2026-05-08 02:10 5.32412 98.57734 36868 ft 489 kts 130°
2026-05-08 02:11 5.27951 98.62885 36870 ft 489 kts 130°
2026-05-08 02:11 5.23476 98.68052 36867 ft 489 kts 130°
2026-05-08 02:12 5.19013 98.73201 36870 ft 489 kts 130°
2026-05-08 02:12 5.14575 98.78324 36870 ft 489 kts 130°
2026-05-08 02:13 5.10098 98.83489 36870 ft 490 kts 130°
2026-05-08 02:13 5.05640 98.88631 36870 ft 490 kts 130°
2026-05-08 02:14 5.01168 98.93787 36870 ft 490 kts 130°
2026-05-08 02:14 4.96678 98.98963 36868 ft 490 kts 130°
2026-05-08 02:15 4.92218 99.04105 36864 ft 489 kts 130°
2026-05-08 02:15 4.87744 99.09263 36867 ft 489 kts 129°
2026-05-08 02:16 4.83300 99.14386 36867 ft 489 kts 130°
2026-05-08 02:16 4.78827 99.19538 36865 ft 490 kts 130°
2026-05-08 02:17 4.74363 99.24680 36866 ft 490 kts 130°
2026-05-08 02:17 4.69893 99.29830 36867 ft 489 kts 130°
2026-05-08 02:18 4.65436 99.34965 36868 ft 488 kts 130°
2026-05-08 02:18 4.60988 99.40093 36867 ft 488 kts 130°
2026-05-08 02:19 4.56540 99.45225 36867 ft 488 kts 130°
2026-05-08 02:19 4.52086 99.50358 36867 ft 488 kts 130°
2026-05-08 02:20 4.47488 99.55348 36866 ft 488 kts 133°
2026-05-08 02:20 4.42717 99.60204 36868 ft 488 kts 133°
2026-05-08 02:21 4.37962 99.65048 36867 ft 488 kts 133°
2026-05-08 02:21 4.33221 99.69892 36869 ft 488 kts 133°
2026-05-08 02:22 4.28460 99.74756 36872 ft 488 kts 133°
2026-05-08 02:22 4.23723 99.79597 36870 ft 488 kts 133°
2026-05-08 02:23 4.18980 99.84444 36870 ft 488 kts 133°
2026-05-08 02:23 4.14220 99.89306 36871 ft 487 kts 133°
2026-05-08 02:24 4.09500 99.94130 36868 ft 487 kts 133°
2026-05-08 02:24 4.04762 99.98970 36869 ft 486 kts 133°
2026-05-08 02:25 4.00019 100.03816 36869 ft 487 kts 133°
2026-05-08 02:25 3.95256 100.08676 36870 ft 487 kts 133°
2026-05-08 02:26 3.90611 100.13416 36870 ft 486 kts 133°
2026-05-08 02:26 3.86345 100.17775 36870 ft 485 kts 133°
2026-05-08 02:27 3.81614 100.22605 36872 ft 484 kts 133°
2026-05-08 02:27 3.77232 100.27080 36871 ft 484 kts 133°
2026-05-08 02:28 3.72534 100.31874 36869 ft 484 kts 133°
2026-05-08 02:28 3.67811 100.36696 36863 ft 484 kts 133°
2026-05-08 02:29 3.63095 100.41514 36864 ft 483 kts 133°
2026-05-08 02:29 3.58403 100.46313 36870 ft 482 kts 133°
2026-05-08 02:30 3.53716 100.51096 36868 ft 482 kts 133°
2026-05-08 02:30 3.49214 100.56033 36872 ft 482 kts 129°
2026-05-08 02:31 3.45114 100.61337 36869 ft 481 kts 126°
2026-05-08 02:31 3.41091 100.66694 36871 ft 481 kts 126°
2026-05-08 02:32 3.37089 100.72025 36869 ft 480 kts 126°
2026-05-08 02:32 3.33082 100.77361 36869 ft 480 kts 126°
2026-05-08 02:33 3.29080 100.82687 36868 ft 480 kts 126°
2026-05-08 02:33 3.25077 100.88013 36870 ft 480 kts 127°
2026-05-08 02:34 3.21052 100.93367 36867 ft 480 kts 127°
2026-05-08 02:34 3.17042 100.98700 36869 ft 480 kts 127°
2026-05-08 02:35 3.13050 101.04010 36871 ft 480 kts 127°
2026-05-08 02:35 3.09017 101.09377 36875 ft 480 kts 127°
2026-05-08 02:36 3.05027 101.14687 36876 ft 480 kts 127°
2026-05-08 02:36 3.01004 101.20040 36883 ft 479 kts 127°
2026-05-08 02:37 2.97017 101.25352 36891 ft 479 kts 126°
2026-05-08 02:37 2.93009 101.30688 36899 ft 480 kts 127°
2026-05-08 02:38 2.88980 101.36022 36899 ft 481 kts 127°
2026-05-08 02:38 2.84943 101.41357 36900 ft 481 kts 127°
2026-05-08 02:39 2.80920 101.46690 36900 ft 481 kts 126°
2026-05-08 02:39 2.76920 101.52000 36899 ft 481 kts 126°
2026-05-08 02:40 2.72890 101.57352 36904 ft 481 kts 126°
2026-05-08 02:40 2.68854 101.62713 36900 ft 481 kts 126°
2026-05-08 02:41 2.64807 101.68090 37302 ft 483 kts 127°
2026-05-08 02:41 2.62813 101.70740 37708 ft 481 kts 126°
2026-05-08 02:41 2.60809 101.73405 38060 ft 480 kts 126°
2026-05-08 02:42 2.58801 101.76077 38354 ft 479 kts 126°
2026-05-08 02:42 2.56805 101.78733 38647 ft 479 kts 126°
2026-05-08 02:42 2.54809 101.81383 38898 ft 479 kts 126°
2026-05-08 02:42 2.52781 101.84071 38902 ft 479 kts 126°
2026-05-08 02:43 2.48768 101.89372 38904 ft 478 kts 126°
2026-05-08 02:43 2.44769 101.94668 38902 ft 479 kts 126°
2026-05-08 02:44 2.40778 101.99960 38905 ft 478 kts 126°
2026-05-08 02:44 2.36771 102.05281 38904 ft 479 kts 126°
2026-05-08 02:45 2.32747 102.10624 38900 ft 479 kts 126°
2026-05-08 02:45 2.28670 102.16039 38895 ft 480 kts 126°
2026-05-08 02:46 2.24622 102.21413 38898 ft 480 kts 126°
2026-05-08 02:46 2.20503 102.26885 38897 ft 480 kts 126°
2026-05-08 02:47 2.16445 102.32275 38891 ft 481 kts 126°
2026-05-08 02:47 2.12427 102.37613 38889 ft 481 kts 126°
2026-05-08 02:48 2.08428 102.42931 38886 ft 481 kts 126°
2026-05-08 02:48 2.04401 102.48287 38884 ft 482 kts 126°
2026-05-08 02:49 2.00357 102.53646 38880 ft 482 kts 126°
2026-05-08 02:49 1.96339 102.58960 38878 ft 482 kts 126°
2026-05-08 02:50 1.92309 102.64305 38871 ft 482 kts 126°
2026-05-08 02:50 1.88255 102.69690 38874 ft 482 kts 126°
2026-05-08 02:51 1.84247 102.75021 38884 ft 483 kts 126°
2026-05-08 02:51 1.80200 102.80410 38892 ft 483 kts 126°
2026-05-08 02:52 1.76181 102.85759 38890 ft 483 kts 125°
2026-05-08 02:52 1.72476 102.91356 38892 ft 482 kts 120°
2026-05-08 02:53 1.70759 102.94431 38892 ft 482 kts 117°
2026-05-08 02:53 1.69550 102.96714 38892 ft 482 kts 117°
2026-05-08 03:08 1.68174 102.99330 38878 ft 480 kts 117°
2026-05-08 03:08 1.66542 103.02371 38510 ft 475 kts 120°
2026-05-08 03:09 1.64606 103.05315 37713 ft 474 kts 126°
2026-05-08 03:09 1.62511 103.07862 36949 ft 474 kts 132°
2026-05-08 03:09 1.60207 103.10159 36192 ft 474 kts 137°
2026-05-08 03:09 1.57645 103.12261 35364 ft 476 kts 143°
2026-05-08 03:10 1.54871 103.14113 34490 ft 478 kts 149°
2026-05-08 03:10 1.51948 103.15673 33594 ft 481 kts 154°
2026-05-08 03:10 1.48841 103.16995 32845 ft 479 kts 157°
2026-05-08 03:10 1.45784 103.18217 32645 ft 468 kts 158°
2026-05-08 03:11 1.42757 103.19414 32441 ft 457 kts 158°
2026-05-08 03:11 1.39823 103.20576 32267 ft 447 kts 158°
2026-05-08 03:11 1.38323 103.21172 32178 ft 442 kts 158°
2026-05-08 03:11 1.35508 103.22293 32004 ft 432 kts 157°
2026-05-08 03:12 1.32738 103.23399 31780 ft 421 kts 157°
2026-05-08 03:12 1.30058 103.24467 31600 ft 412 kts 157°
2026-05-08 03:12 1.27411 103.25523 31266 ft 407 kts 156°
2026-05-08 03:12 1.24834 103.26662 30835 ft 404 kts 153°
2026-05-08 03:13 1.22338 103.27963 30404 ft 400 kts 149°
2026-05-08 03:13 1.19922 103.29349 29979 ft 398 kts 148°
2026-05-08 03:13 1.17532 103.30738 29555 ft 395 kts 148°
2026-05-08 03:13 1.15163 103.32115 29138 ft 392 kts 148°
2026-05-08 03:14 1.12806 103.33486 28695 ft 390 kts 147°
2026-05-08 03:14 1.10481 103.34837 28290 ft 387 kts 147°
2026-05-08 03:14 1.08161 103.36186 27901 ft 384 kts 147°
2026-05-08 03:14 1.05855 103.37527 27508 ft 382 kts 147°
2026-05-08 03:15 1.03578 103.38846 27287 ft 374 kts 147°
2026-05-08 03:15 1.01138 103.40256 27104 ft 364 kts 147°
2026-05-08 03:15 0.98893 103.41694 26907 ft 351 kts 134°
2026-05-08 03:15 0.97459 103.43771 26629 ft 336 kts 105°
2026-05-08 03:16 0.97108 103.46006 26313 ft 328 kts 92°
2026-05-08 03:16 0.97005 103.48295 25954 ft 326 kts 92°
2026-05-08 03:16 0.96872 103.50516 25593 ft 323 kts 93°
2026-05-08 03:16 0.96713 103.52755 25236 ft 321 kts 94°
2026-05-08 03:17 0.96545 103.54977 24884 ft 318 kts 92°
2026-05-08 03:17 0.96521 103.57160 24522 ft 315 kts 87°
2026-05-08 03:17 0.96713 103.59328 24160 ft 313 kts 83°
2026-05-08 03:17 0.97008 103.61478 23803 ft 311 kts 82°
2026-05-08 03:18 0.97309 103.63591 23459 ft 308 kts 82°
2026-05-08 03:18 0.97611 103.65722 23130 ft 305 kts 82°
2026-05-08 03:18 0.97903 103.67802 22781 ft 303 kts 82°
2026-05-08 03:18 0.98194 103.69876 22436 ft 301 kts 82°
2026-05-08 03:19 0.98483 103.71950 22105 ft 299 kts 82°
2026-05-08 03:19 0.98772 103.74019 21775 ft 297 kts 82°
2026-05-08 03:19 0.99057 103.76064 21446 ft 295 kts 82°
2026-05-08 03:19 0.99341 103.78092 21117 ft 293 kts 82°
2026-05-08 03:20 0.99625 103.80119 20784 ft 291 kts 82°
2026-05-08 03:20 0.99908 103.82142 20447 ft 290 kts 82°
2026-05-08 03:20 1.00189 103.84158 20101 ft 289 kts 82°
2026-05-08 03:20 1.00456 103.86143 19758 ft 288 kts 82°
2026-05-08 03:21 1.00716 103.88139 19415 ft 287 kts 82°
2026-05-08 03:21 1.00972 103.90101 19083 ft 286 kts 82°
2026-05-08 03:21 1.01229 103.92069 18742 ft 285 kts 82°
2026-05-08 03:21 1.01487 103.94032 18410 ft 284 kts 82°
2026-05-08 03:22 1.01800 103.96005 18063 ft 282 kts 73°
2026-05-08 03:22 1.02531 103.97779 17879 ft 280 kts 59°
2026-05-08 03:22 1.03638 103.99406 17875 ft 282 kts 55°
2026-05-08 03:22 1.04789 104.00981 17792 ft 278 kts 54°
2026-05-08 03:23 1.05925 104.02532 17459 ft 279 kts 55°
2026-05-08 03:23 1.07068 104.04101 17097 ft 279 kts 55°
2026-05-08 03:23 1.08203 104.05666 16770 ft 277 kts 55°
2026-05-08 03:23 1.09325 104.07220 16443 ft 276 kts 55°
2026-05-08 03:24 1.10452 104.08781 16117 ft 275 kts 55°
2026-05-08 03:24 1.11566 104.10326 15793 ft 275 kts 55°
2026-05-08 03:24 1.12682 104.11872 15470 ft 273 kts 54°
2026-05-08 03:24 1.13987 104.13239 15128 ft 273 kts 36°
2026-05-08 03:25 1.15659 104.14156 14821 ft 273 kts 25°
2026-05-08 03:25 1.17397 104.14892 14514 ft 271 kts 24°
2026-05-08 03:25 1.19155 104.15621 14197 ft 270 kts 24°
2026-05-08 03:25 1.20878 104.16341 13879 ft 269 kts 24°
2026-05-08 03:26 1.22607 104.17071 13555 ft 268 kts 24°
2026-05-08 03:26 1.24329 104.17800 13240 ft 267 kts 24°
2026-05-08 03:26 1.26041 104.18529 12922 ft 266 kts 24°
2026-05-08 03:26 1.27734 104.19249 12608 ft 265 kts 24°
2026-05-08 03:27 1.29435 104.19974 12295 ft 264 kts 24°
2026-05-08 03:27 1.31122 104.20693 11976 ft 263 kts 24°
2026-05-08 03:27 1.32888 104.21180 11623 ft 264 kts
2026-05-08 03:27 1.34755 104.21011 11299 ft 263 kts 350°
2026-05-08 03:28 1.36584 104.20611 11016 ft 261 kts 348°
2026-05-08 03:28 1.38443 104.20189 10698 ft 260 kts 348°
2026-05-08 03:28 1.40253 104.19783 10382 ft 258 kts 349°
2026-05-08 03:28 1.42042 104.19391 10064 ft 257 kts 349°
2026-05-08 03:29 1.43897 104.18987 9729 ft 256 kts 349°
2026-05-08 03:29 1.45742 104.18591 9394 ft 255 kts 349°
2026-05-08 03:29 1.47562 104.18200 9070 ft 254 kts 349°
2026-05-08 03:29 1.49377 104.17810 8749 ft 253 kts 349°
2026-05-08 03:30 1.52930 104.16686 8196 ft 247 kts 326°
2026-05-08 03:30 1.55728 104.14420 7722 ft 239 kts 320°
2026-05-08 03:31 1.58427 104.12158 7190 ft 230 kts 321°
2026-05-08 03:31 1.60469 104.08847 4906 ft 291 kts 265°
2026-05-08 03:32 1.59708 104.06812 4344 ft 295 kts 230°
2026-05-08 03:32 1.57910 104.05582 3939 ft 290 kts 195°
2026-05-08 03:32 1.55778 104.05250 3505 ft 268 kts 184°
2026-05-08 03:32 1.53869 104.05116 3156 ft 243 kts 183°
2026-05-08 03:33 1.52139 104.04868 2897 ft 219 kts 193°
2026-05-08 03:33 1.50632 104.04384 2621 ft 201 kts 200°
2026-05-08 03:33 1.49311 104.03842 2362 ft 185 kts 202°
2026-05-08 03:33 1.48090 104.03316 2120 ft 169 kts 202°
2026-05-08 03:34 1.46931 104.02820 1906 ft 165 kts 202°
2026-05-08 03:34 1.45791 104.02338 1704 ft 163 kts 202°
2026-05-08 03:34 1.44674 104.01868 1488 ft 160 kts 201°
2026-05-08 03:34 1.43568 104.01403 1266 ft 159 kts 202°
2026-05-08 03:35 1.42457 104.00935 1041 ft 158 kts 201°
2026-05-08 03:35 1.41360 104.00472 818 ft 156 kts 202°
2026-05-08 03:35 1.40250 104.00004 596 ft 155 kts 202°
2026-05-08 03:35 1.39111 103.99524 373 ft 154 kts 202°
2026-05-08 03:36 1.37983 103.99047 151 ft 153 kts 202°
2026-05-08 03:36 1.36935 103.98607 43 ft 128 kts 202°
2026-05-08 03:36 1.36210 103.98302 45 ft 69 kts 203°
2026-05-08 03:36 1.35965 103.98197 42 ft 34 kts 203°
2026-05-08 03:37 1.35719 103.98108 42 ft 20 kts 186°
2026-05-08 03:37 1.35556 103.98119 39 ft 14 kts 158°
2026-05-08 03:37 1.35525 103.98152 38 ft 0 kts 112°
2026-05-08 03:37 1.35524 103.98180 38 ft 4 kts 69°
2026-05-08 03:38 1.35541 103.98203 38 ft 6 kts 43°
2026-05-08 03:38 1.35610 103.98244 39 ft 10 kts 25°
2026-05-08 03:38 1.35663 103.98267 38 ft 13 kts 23°
2026-05-08 03:38 1.35723 103.98322 38 ft 6 kts 103°
2026-05-08 03:39 1.35698 103.98357 38 ft 8 kts 140°
2026-05-08 03:39 1.35659 103.98357 37 ft 5 kts 199°
2026-05-08 03:39 1.35613 103.98340 38 ft 8 kts 199°
2026-05-08 03:39 1.35561 103.98321 39 ft 7 kts 204°
2026-05-08 03:40 1.35513 103.98322 40 ft 6 kts 153°
2026-05-08 03:40 1.35489 103.98376 41 ft 4 kts 97°
2026-05-08 03:40 1.35487 103.98390 41 ft 0 kts 96°
2026-05-08 03:42 1.35487 103.98395 41 ft 0 kts 96°